| time (UTC) | temp C | wind direction | speed KPH | gust KPH | rain 1hr cm | rain 24hr cm | rain mn cm | humidity % | barometer mb |
| 20260904123405 | 14 | 92 | 6.4 | 12.9 | 0.00 | 0.00 | 0.00 | 96 | 1012.6 |
| 20260904123359 | 14 | 97 | 6.4 | 12.9 | 0.00 | 0.00 | 0.00 | 96 | 1012.7 |
| 20260904122403 | 14 | 106 | 6.4 | 11.3 | 0.00 | 0.00 | 0.00 | 96 | 1012.6 |
| 20260904122357 | 14 | 113 | 6.4 | 11.3 | 0.00 | 0.00 | 0.00 | 96 | 1012.6 |
| 20260904121357 | 14 | 88 | 6.4 | 11.3 | 0.00 | 0.00 | 0.00 | 96 | 1012.6 |
| 20260904120857 | 14 | 93 | 6.4 | 16.1 | 0.00 | 0.00 | 0.00 | 96 | 1012.5 |
| 20260904120357 | 14 | 125 | 8.0 | 16.1 | 0.00 | 0.00 | 0.00 | 96 | 1012.6 |
| 20260904115858 | 14 | 96 | 9.7 | 16.1 | 0.00 | 0.00 | 0.00 | 96 | 1012.5 |
| 20260904115358 | 14 | 102 | 11.3 | 16.1 | 0.00 | 0.00 | 0.00 | 96 | 1012.6 |
| 20260904114857 | 14 | 112 | 11.3 | 17.7 | 0.00 | 0.00 | 0.00 | 96 | 1012.6 |
| 20260904114357 | 14 | 105 | 11.3 | 17.7 | 0.00 | 0.00 | 0.00 | 96 | 1012.6 |
| 20260904113857 | 14 | 98 | 8.0 | 14.5 | 0.00 | 0.00 | 0.00 | 96 | 1012.6 |
| 20260904113357 | 14 | 109 | 8.0 | 16.1 | 0.00 | 0.00 | 0.00 | 96 | 1012.6 |
| 20260904112858 | 14 | 105 | 11.3 | 16.1 | 0.00 | 0.00 | 0.00 | 96 | 1012.6 |
| 20260904112356 | 14 | 110 | 9.7 | 14.5 | 0.00 | 0.00 | 0.00 | 96 | 1012.5 |
| 20260904111855 | 14 | 102 | 11.3 | 16.1 | 0.00 | 0.00 | 0.00 | 96 | 1012.6 |
| 20260904111355 | 14 | 98 | 12.9 | 16.1 | 0.00 | 0.00 | 0.00 | 95 | 1012.6 |
| 20260904110855 | 14 | 110 | 12.9 | 17.7 | 0.00 | 0.00 | 0.00 | 95 | 1012.7 |
| 20260904110356 | 14 | 103 | 12.9 | 17.7 | 0.00 | 0.00 | 0.00 | 95 | 1012.7 |
| 20260904105859 | 14 | 105 | 14.5 | 19.3 | 0.00 | 0.00 | 0.00 | 95 | 1012.6 |
| 20260904105855 | 14 | 118 | 14.5 | 19.3 | 0.00 | 0.00 | 0.00 | 95 | 1012.7 |
| 20260904104855 | 14 | 111 | 12.9 | 19.3 | 0.00 | 0.00 | 0.00 | 95 | 1012.7 |
| 20260904104353 | 14 | 97 | 14.5 | 19.3 | 0.00 | 0.00 | 0.00 | 95 | 1012.6 |
| 20260904103851 | 14 | 109 | 14.5 | 19.3 | 0.00 | 0.00 | 0.00 | 95 | 1012.6 |
| 20260904103351 | 15 | 107 | 12.9 | 19.3 | 0.00 | 0.00 | 0.00 | 94 | 1012.6 |
| 20260904102850 | 15 | 94 | 12.9 | 20.9 | 0.00 | 0.00 | 0.00 | 94 | 1012.6 |
| 20260904102351 | 15 | 105 | 14.5 | 20.9 | 0.00 | 0.00 | 0.00 | 94 | 1012.6 |
| 20260904101851 | 15 | 101 | 16.1 | 20.9 | 0.00 | 0.00 | 0.00 | 94 | 1012.5 |
| 20260904101351 | 15 | 98 | 16.1 | 20.9 | 0.00 | 0.00 | 0.00 | 93 | 1012.5 |
| 20260904100856 | 15 | 84 | 14.5 | 20.9 | 0.00 | 0.00 | 0.00 | 93 | 1012.5 |
| 20260904100851 | 15 | 86 | 14.5 | 20.9 | 0.00 | 0.00 | 0.00 | 93 | 1012.5 |
| 20260904095851 | 15 | 99 | 16.1 | 20.9 | 0.00 | 0.00 | 0.00 | 92 | 1012.6 |
| 20260904095351 | 15 | 90 | 14.5 | 19.3 | 0.00 | 0.00 | 0.00 | 91 | 1012.5 |
| 20260904094851 | 15 | 90 | 14.5 | 17.7 | 0.00 | 0.00 | 0.00 | 91 | 1012.6 |
| 20260904094351 | 15 | 90 | 16.1 | 17.7 | 0.00 | 0.00 | 0.00 | 90 | 1012.6 |
| 20260904093848 | 15 | 83 | 14.5 | 17.7 | 0.00 | 0.00 | 0.00 | 90 | 1012.6 |
| 20260904093350 | 15 | 86 | 12.9 | 16.1 | 0.00 | 0.00 | 0.00 | 89 | 1012.6 |
| 20260904092849 | 15 | 74 | 11.3 | 14.5 | 0.00 | 0.00 | 0.00 | 89 | 1012.5 |
| 20260904092354 | 15 | 87 | 9.7 | 14.5 | 0.00 | 0.00 | 0.00 | 88 | 1012.5 |
| 20260904092350 | 15 | 88 | 11.3 | 14.5 | 0.00 | 0.00 | 0.00 | 88 | 1012.5 |
| 20260904091349 | 15 | 84 | 8.0 | 12.9 | 0.00 | 0.00 | 0.00 | 88 | 1012.5 |
| 20260904090848 | 15 | 86 | 9.7 | 14.5 | 0.00 | 0.00 | 0.00 | 87 | 1012.6 |
| 20260904090348 | 15 | 84 | 11.3 | 14.5 | 0.00 | 0.00 | 0.00 | 87 | 1012.5 |
| 20260904085852 | 16 | 79 | 9.7 | 14.5 | 0.00 | 0.00 | 0.00 | 87 | 1012.5 |
| 20260904085848 | 16 | 68 | 11.3 | 14.5 | 0.00 | 0.00 | 0.00 | 86 | 1012.7 |
| 20260904085459 | 16 | 86 | 9.7 | 12.9 | 0.00 | 0.00 | 0.00 | 85 | 1012.7 |
| 20260904085452 | 16 | 78 | 9.7 | 14.5 | 0.00 | 0.00 | 0.00 | 86 | 1012.6 |
| 20260904083847 | 16 | 91 | 9.7 | 16.1 | 0.00 | 0.00 | 0.00 | 84 | 1012.7 |
| 20260904083347 | 16 | 98 | 11.3 | 16.1 | 0.00 | 0.00 | 0.00 | 82 | 1012.7 |
| 20260904082846 | 16 | 91 | 11.3 | 16.1 | 0.00 | 0.00 | 0.00 | 78 | 1012.7 |
| 20260904082346 | 16 | 88 | 12.9 | 16.1 | 0.00 | 0.00 | 0.00 | 77 | 1012.8 |
| 20260904081847 | 16 | 86 | 14.5 | 17.7 | 0.00 | 0.00 | 0.00 | 75 | 1012.7 |
| 20260904081346 | 16 | 86 | 14.5 | 17.7 | 0.00 | 0.00 | 0.00 | 78 | 1012.8 |
| 20260904080847 | 16 | 90 | 14.5 | 17.7 | 0.00 | 0.00 | 0.00 | 80 | 1012.9 |
| 20260904080345 | 16 | 90 | 14.5 | 17.7 | 0.00 | 0.00 | 0.00 | 80 | 1012.9 |
| 20260904075849 | 16 | 92 | 14.5 | 17.7 | 0.00 | 0.00 | 0.00 | 75 | 1013.0 |
| 20260904075845 | 16 | 98 | 14.5 | 17.7 | 0.00 | 0.00 | 0.00 | 78 | 1012.9 |
| 20260904074848 | 16 | 100 | 12.9 | 16.1 | 0.00 | 0.00 | 0.00 | 70 | 1013.1 |
| 20260904074844 | 16 | 101 | 12.9 | 16.1 | 0.00 | 0.00 | 0.00 | 70 | 1013.1 |
| 20260904073844 | 16 | 97 | 12.9 | 16.1 | 0.00 | 0.00 | 0.00 | 66 | 1013.0 |
| 20260904073344 | 16 | 98 | 12.9 | 16.1 | 0.00 | 0.00 | 0.00 | 66 | 1013.0 |
| 20260904072844 | 16 | 96 | 12.9 | 16.1 | 0.00 | 0.00 | 0.00 | 65 | 1013.0 |
| 20260904072344 | 17 | 98 | 12.9 | 16.1 | 0.00 | 0.00 | 0.00 | 66 | 1013.0 |
| 20260904071849 | 17 | 97 | 12.9 | 16.1 | 0.00 | 0.00 | 0.00 | 65 | 1012.9 |
| 20260904071844 | 17 | 96 | 12.9 | 16.1 | 0.00 | 0.00 | 0.00 | 65 | 1012.9 |
| 20260904070845 | 17 | 96 | 12.9 | 16.1 | 0.00 | 0.00 | 0.00 | 66 | 1012.9 |
| 20260904070348 | 17 | 96 | 12.9 | 16.1 | 0.00 | 0.00 | 0.00 | 54 | 1012.8 |
| 20260904070344 | 17 | 94 | 12.9 | 16.1 | 0.00 | 0.00 | 0.00 | 61 | 1012.8 |
| 20260904065349 | 17 | 103 | 11.3 | 16.1 | 0.00 | 0.00 | 0.00 | 58 | 1012.9 |
| 20260904065345 | 17 | 102 | 11.3 | 14.5 | 0.00 | 0.00 | 0.00 | 56 | 1012.9 |
| 20260904064955 | 17 | 96 | 11.3 | 14.5 | 0.00 | 0.00 | 0.00 | 59 | 1012.9 |
| 20260904064948 | 17 | 101 | 12.9 | 16.1 | 0.00 | 0.00 | 0.00 | 56 | 1012.9 |
| 20260904063342 | 17 | 89 | 11.3 | 14.5 | 0.00 | 0.00 | 0.00 | 61 | 1012.8 |
| 20260904062842 | 17 | 90 | 11.3 | 14.5 | 0.00 | 0.00 | 0.00 | 57 | 1012.8 |
| 20260904062346 | 17 | 89 | 11.3 | 14.5 | 0.00 | 0.00 | 0.00 | 57 | 1012.8 |
| 20260904062342 | 17 | 92 | 11.3 | 14.5 | 0.00 | 0.00 | 0.00 | 58 | 1012.9 |
| 20260904061342 | 17 | 92 | 11.3 | 14.5 | 0.00 | 0.00 | 0.00 | 57 | 1012.8 |
| 20260904060840 | 17 | 77 | 9.7 | 14.5 | 0.00 | 0.00 | 0.00 | 60 | 1012.7 |
| 20260904060340 | 17 | 78 | 8.0 | 12.9 | 0.00 | 0.00 | 0.00 | 63 | 1012.8 |
| 20260904055846 | 17 | 59 | 8.0 | 9.7 | 0.00 | 0.00 | 0.00 | 77 | 1012.7 |
| 20260904055840 | 17 | 61 | 8.0 | 9.7 | 0.00 | 0.00 | 0.00 | 75 | 1012.7 |
| 20260904054840 | 17 | 42 | 9.7 | 12.9 | 0.00 | 0.00 | 0.00 | 77 | 1012.8 |
| 20260904054338 | 17 | 40 | 9.7 | 12.9 | 0.00 | 0.00 | 0.00 | 76 | 1012.8 |
| 20260904053842 | 17 | 32 | 9.7 | 12.9 | 0.00 | 0.00 | 0.00 | 78 | 1012.9 |
| 20260904053837 | 17 | 32 | 9.7 | 12.9 | 0.00 | 0.00 | 0.00 | 79 | 1012.8 |
| 20260904052836 | 17 | 32 | 9.7 | 12.9 | 0.00 | 0.00 | 0.00 | 79 | 1012.9 |
| 20260904052339 | 17 | 32 | 9.7 | 12.9 | 0.00 | 0.00 | 0.00 | 80 | 1012.8 |
| 20260904052335 | 17 | 32 | 8.0 | 12.9 | 0.00 | 0.00 | 0.00 | 81 | 1012.8 |
| 20260904051334 | 17 | 32 | 8.0 | 12.9 | 0.00 | 0.00 | 0.00 | 81 | 1012.9 |
| 20260904050833 | 17 | 24 | 8.0 | 9.7 | 0.00 | 0.00 | 0.00 | 81 | 1013.0 |
| 20260904050335 | 17 | 24 | 6.4 | 9.7 | 0.00 | 0.00 | 0.00 | 81 | 1013.0 |
| 20260904045834 | 18 | 22 | 6.4 | 8.0 | 0.00 | 0.00 | 0.00 | 81 | 1013.0 |
| 20260904045338 | 18 | 5 | 6.4 | 8.0 | 0.00 | 0.00 | 0.00 | 81 | 1013.0 |
| 20260904045334 | 18 | 18 | 6.4 | 8.0 | 0.00 | 0.00 | 0.00 | 81 | 1013.0 |
| 20260904044333 | 18 | 5 | 6.4 | 8.0 | 0.00 | 0.00 | 0.00 | 81 | 1012.9 |
| 20260904043834 | 18 | 5 | 6.4 | 8.0 | 0.00 | 0.00 | 0.00 | 82 | 1012.8 |
| 20260904043443 | 18 | 0 | 8.0 | 9.7 | 0.00 | 0.00 | 0.00 | 82 | 1012.9 |
| 20260904043334 | 18 | 5 | 6.4 | 8.0 | 0.00 | 0.00 | 0.00 | 82 | 1012.8 |
| 20260904042836 | 18 | 355 | 6.4 | 8.0 | 0.00 | 0.00 | 0.00 | 82 | 1012.9 |
| 20260904042832 | 18 | 0 | 6.4 | 8.0 | 0.00 | 0.00 | 0.00 | 82 | 1012.9 |
| 20260904041939 | 18 | 282 | 6.4 | 9.7 | 0.00 | 0.00 | 0.00 | 82 | 1012.8 |
| 20260904041332 | 18 | 5 | 8.0 | 9.7 | 0.00 | 0.00 | 0.00 | 82 | 1012.8 |
| 20260904040332 | 18 | 261 | 6.4 | 9.7 | 0.00 | 0.00 | 0.00 | 82 | 1012.8 |
| 20260904035837 | 18 | 228 | 1.6 | 6.4 | 0.00 | 0.00 | 0.00 | 81 | 1012.7 |
| 20260904035832 | 18 | 259 | 4.8 | 6.4 | 0.00 | 0.00 | 0.00 | 82 | 1012.7 |
| 20260904034832 | 18 | 205 | 0.0 | 1.6 | 0.00 | 0.00 | 0.00 | 81 | 1012.7 |
| 20260904034332 | 18 | 119 | 0.0 | 1.6 | 0.00 | 0.00 | 0.00 | 81 | 1012.7 |
| 20260904033830 | 18 | 119 | 0.0 | 1.6 | 0.00 | 0.00 | 0.00 | 81 | 1012.6 |
| 20260904033330 | 18 | 119 | 0.0 | 0.0 | 0.00 | 0.00 | 0.00 | 80 | 1012.5 |
| 20260904032829 | 18 | 119 | 0.0 | 6.4 | 0.00 | 0.00 | 0.00 | 80 | 1012.5 |
| 20260904032330 | 18 | 119 | 0.0 | 6.4 | 0.00 | 0.00 | 0.00 | 80 | 1012.5 |
| 20260904031830 | 18 | 119 | 1.6 | 6.4 | 0.00 | 0.00 | 0.00 | 80 | 1012.4 |
| 20260904031330 | 18 | 119 | 1.6 | 6.4 | 0.00 | 0.00 | 0.00 | 80 | 1012.4 |
| 20260904030830 | 18 | 117 | 0.0 | 4.8 | 0.00 | 0.00 | 0.00 | 79 | 1012.4 |
| 20260904030330 | 18 | 174 | 1.6 | 4.8 | 0.00 | 0.00 | 0.00 | 80 | 1012.4 |
| 20260904025829 | 18 | 174 | 1.6 | 4.8 | 0.00 | 0.00 | 0.00 | 80 | 1012.4 |
| 20260904025334 | 18 | 180 | 0.0 | 3.2 | 0.00 | 0.00 | 0.00 | 77 | 1012.3 |
| 20260904025329 | 18 | 178 | 0.0 | 4.8 | 0.00 | 0.00 | 0.00 | 79 | 1012.4 |
| 20260904024828 | 18 | 178 | 0.0 | 1.6 | 0.00 | 0.00 | 0.00 | 78 | 1012.3 |
| 20260904023826 | 18 | 182 | 1.6 | 4.8 | 0.00 | 0.00 | 0.00 | 77 | 1012.3 |
| 20260904023325 | 19 | 184 | 1.6 | 4.8 | 0.00 | 0.00 | 0.00 | 76 | 1012.4 |
| 20260904022826 | 19 | 232 | 0.0 | 4.8 | 0.00 | 0.00 | 0.00 | 75 | 1012.3 |
| 20260904022323 | 19 | 317 | 1.6 | 4.8 | 0.00 | 0.00 | 0.00 | 75 | 1012.3 |
| 20260904021824 | 19 | 319 | 1.6 | 4.8 | 0.00 | 0.00 | 0.00 | 73 | 1012.3 |
| 20260904021327 | 20 | 313 | 3.2 | 9.7 | 0.00 | 0.00 | 0.00 | 73 | 1012.3 |
| 20260904021323 | 20 | 311 | 4.8 | 9.7 | 0.00 | 0.00 | 0.00 | 72 | 1012.4 |
| 20260904020322 | 20 | 265 | 4.8 | 9.7 | 0.00 | 0.00 | 0.00 | 72 | 1012.4 |
| 20260904015819 | 20 | 248 | 4.8 | 9.7 | 0.00 | 0.00 | 0.00 | 73 | 1012.4 |
| 20260904015320 | 20 | 247 | 4.8 | 9.7 | 0.00 | 0.00 | 0.00 | 72 | 1012.4 |
| 20260904014825 | 21 | 257 | 4.8 | 9.7 | 0.00 | 0.00 | 0.00 | 74 | 1012.3 |
| 20260904014820 | 21 | 244 | 3.2 | 9.7 | 0.00 | 0.00 | 0.00 | 74 | 1012.3 |
| 20260904013819 | 21 | 269 | 3.2 | 6.4 | 0.00 | 0.00 | 0.00 | 74 | 1012.3 |
| 20260904013319 | 21 | 277 | 1.6 | 6.4 | 0.00 | 0.00 | 0.00 | 69 | 1012.4 |
| 20260904012820 | 21 | 275 | 1.6 | 6.4 | 0.00 | 0.00 | 0.00 | 72 | 1012.4 |
| 20260904012320 | 21 | 275 | 1.6 | 6.4 | 0.00 | 0.00 | 0.00 | 72 | 1012.4 |
| 20260904011819 | 21 | 228 | 1.6 | 6.4 | 0.00 | 0.00 | 0.00 | 69 | 1012.4 |
| 20260904011319 | 21 | 228 | 1.6 | 6.4 | 0.00 | 0.00 | 0.00 | 70 | 1012.4 |
| 20260904010819 | 21 | 207 | 1.6 | 4.8 | 0.00 | 0.00 | 0.00 | 64 | 1012.5 |
| 20260904010319 | 21 | 200 | 0.0 | 4.8 | 0.00 | 0.00 | 0.00 | 70 | 1012.5 |
| 20260904005820 | 21 | 186 | 0.0 | 6.4 | 0.00 | 0.00 | 0.00 | 72 | 1012.5 |
| 20260904005320 | 21 | 196 | 0.0 | 6.4 | 0.00 | 0.00 | 0.00 | 68 | 1012.5 |
| 20260904004819 | 20 | 199 | 0.0 | 6.4 | 0.00 | 0.00 | 0.00 | 68 | 1012.5 |
| 20260904004319 | 20 | 196 | 1.6 | 6.4 | 0.00 | 0.00 | 0.00 | 64 | 1012.5 |
| 20260904003825 | 20 | 199 | 4.8 | 11.3 | 0.00 | 0.00 | 0.00 | 78 | 1012.6 |
| 20260904003819 | 20 | 233 | 3.2 | 8.0 | 0.00 | 0.00 | 0.00 | 73 | 1012.6 |
| 20260904003423 | 20 | 211 | 4.8 | 9.7 | 0.00 | 0.00 | 0.00 | 75 | 1012.7 |
| 20260904002924 | 20 | 188 | 4.8 | 11.3 | 0.00 | 0.00 | 0.00 | 79 | 1012.6 |
| 20260904002425 | 19 | 211 | 4.8 | 14.5 | 0.00 | 0.00 | 0.00 | 77 | 1012.6 |
| 20260904001317 | 19 | 220 | 4.8 | 14.5 | 0.00 | 0.00 | 0.00 | 82 | 1012.7 |
| 20260904000818 | 19 | 192 | 6.4 | 14.5 | 0.00 | 0.00 | 0.00 | 82 | 1012.8 |
| 20260904000318 | 19 | 204 | 8.0 | 14.5 | 0.00 | 0.00 | 0.00 | 82 | 1012.8 |
| 20260903235817 | 19 | 209 | 8.0 | 14.5 | 0.00 | 0.00 | 0.00 | 82 | 1012.8 |
| 20260903235315 | 20 | 227 | 9.7 | 14.5 | 0.00 | 0.00 | 0.00 | 81 | 1012.8 |
| 20260903234815 | 20 | 209 | 8.0 | 14.5 | 0.00 | 0.00 | 0.00 | 80 | 1012.8 |
| 20260903234316 | 20 | 229 | 6.4 | 12.9 | 0.00 | 0.00 | 0.00 | 80 | 1012.9 |
| 20260903233815 | 20 | 174 | 8.0 | 12.9 | 0.00 | 0.00 | 0.00 | 78 | 1012.9 |
| 20260903233314 | 20 | 190 | 8.0 | 12.9 | 0.00 | 0.00 | 0.00 | 79 | 1013.0 |
| 20260903232815 | 20 | 167 | 6.4 | 16.1 | 0.00 | 0.00 | 0.00 | 81 | 1013.0 |
| 20260903232811 | 20 | 220 | 6.4 | 16.1 | 0.00 | 0.00 | 0.00 | 78 | 1013.0 |
| 20260903231811 | 20 | 190 | 6.4 | 16.1 | 0.00 | 0.00 | 0.00 | 81 | 1013.1 |
| 20260903231309 | 20 | 217 | 6.4 | 16.1 | 0.00 | 0.00 | 0.00 | 80 | 1013.0 |
| 20260903230809 | 20 | 189 | 8.0 | 14.5 | 0.00 | 0.00 | 0.00 | 81 | 1013.0 |
| 20260903230311 | 20 | 181 | 9.7 | 16.1 | 0.00 | 0.00 | 0.00 | 82 | 1013.2 |
| 20260903230307 | 20 | 171 | 9.7 | 14.5 | 0.00 | 0.00 | 0.00 | 80 | 1013.1 |
| 20260903225307 | 19 | 204 | 8.0 | 16.1 | 0.00 | 0.00 | 0.00 | 81 | 1013.2 |
| 20260903224807 | 20 | 188 | 8.0 | 16.1 | 0.00 | 0.00 | 0.00 | 81 | 1013.2 |
| 20260903224308 | 20 | 192 | 8.0 | 14.5 | 0.00 | 0.00 | 0.00 | 80 | 1013.1 |
| 20260903223805 | 20 | 178 | 9.7 | 16.1 | 0.00 | 0.00 | 0.00 | 82 | 1013.2 |
| 20260903223305 | 19 | 183 | 11.3 | 17.7 | 0.00 | 0.00 | 0.00 | 83 | 1013.4 |
| 20260903222806 | 19 | 196 | 11.3 | 22.5 | 0.00 | 0.00 | 0.00 | 83 | 1013.5 |
| 20260903222306 | 19 | 194 | 12.9 | 22.5 | 0.00 | 0.00 | 0.00 | 83 | 1013.5 |
| 20260903221809 | 18 | 180 | 12.9 | 19.3 | 0.00 | 0.00 | 0.00 | 84 | 1013.6 |
| 20260903221805 | 18 | 164 | 12.9 | 19.3 | 0.00 | 0.00 | 0.00 | 83 | 1013.6 |
| 20260903220805 | 18 | 155 | 12.9 | 22.5 | 0.00 | 0.00 | 0.00 | 83 | 1013.6 |
| 20260903220305 | 18 | 181 | 12.9 | 22.5 | 0.00 | 0.00 | 0.00 | 82 | 1013.7 |
| 20260903215805 | 19 | 169 | 12.9 | 22.5 | 0.00 | 0.00 | 0.00 | 81 | 1013.7 |
| 20260903215306 | 19 | 170 | 12.9 | 22.5 | 0.00 | 0.00 | 0.00 | 81 | 1013.7 |
| 20260903214803 | 19 | 171 | 12.9 | 22.5 | 0.00 | 0.00 | 0.00 | 81 | 1013.7 |
| 20260903214303 | 19 | 134 | 12.9 | 22.5 | 0.00 | 0.00 | 0.00 | 80 | 1013.8 |
| 20260903213803 | 20 | 155 | 11.3 | 22.5 | 0.00 | 0.00 | 0.00 | 79 | 1013.8 |
| 20260903213302 | 20 | 167 | 11.3 | 20.9 | 0.00 | 0.00 | 0.00 | 79 | 1013.8 |
| 20260903212806 | 20 | 150 | 11.3 | 19.3 | 0.00 | 0.00 | 0.00 | 79 | 1013.8 |
| 20260903212802 | 20 | 162 | 11.3 | 20.9 | 0.00 | 0.00 | 0.00 | 79 | 1013.9 |
| 20260903211802 | 19 | 175 | 11.3 | 19.3 | 0.00 | 0.00 | 0.00 | 78 | 1013.9 |
| 20260903211302 | 19 | 157 | 11.3 | 20.9 | 0.00 | 0.00 | 0.00 | 78 | 1013.9 |
| 20260903210803 | 19 | 151 | 11.3 | 20.9 | 0.00 | 0.00 | 0.00 | 78 | 1013.9 |
| 20260903210302 | 20 | 183 | 11.3 | 17.7 | 0.00 | 0.00 | 0.00 | 76 | 1014.0 |
| 20260903205802 | 20 | 137 | 11.3 | 17.7 | 0.00 | 0.00 | 0.00 | 78 | 1014.0 |
| 20260903205306 | 20 | 184 | 11.3 | 22.5 | 0.00 | 0.00 | 0.00 | 77 | 1014.1 |
| 20260903204802 | 19 | 184 | 12.9 | 22.5 | 0.00 | 0.00 | 0.00 | 79 | 1014.1 |
| 20260903204307 | 19 | 168 | 11.3 | 19.3 | 0.00 | 0.00 | 0.00 | 78 | 1014.1 |
| 20260903204302 | 19 | 154 | 11.3 | 22.5 | 0.00 | 0.00 | 0.00 | 78 | 1014.1 |
| 20260903203259 | 19 | 168 | 11.3 | 19.3 | 0.00 | 0.00 | 0.00 | 79 | 1014.1 |
| 20260903202759 | 19 | 174 | 11.3 | 17.7 | 0.00 | 0.00 | 0.00 | 80 | 1014.1 |
| 20260903202256 | 19 | 152 | 12.9 | 19.3 | 0.00 | 0.00 | 0.00 | 79 | 1014.1 |
| 20260903201757 | 19 | 138 | 11.3 | 19.3 | 0.00 | 0.00 | 0.00 | 79 | 1014.1 |
| 20260903201257 | 19 | 150 | 11.3 | 20.9 | 0.00 | 0.00 | 0.00 | 80 | 1014.2 |
| 20260903200757 | 19 | 144 | 11.3 | 20.9 | 0.00 | 0.00 | 0.00 | 81 | 1014.2 |
| 20260903200300 | 18 | 173 | 9.7 | 17.7 | 0.00 | 0.00 | 0.00 | 80 | 1014.3 |
| 20260903200256 | 18 | 142 | 11.3 | 19.3 | 0.00 | 0.00 | 0.00 | 82 | 1014.3 |
| 20260903195254 | 18 | 144 | 12.9 | 19.3 | 0.00 | 0.00 | 0.00 | 82 | 1014.3 |
| 20260903194754 | 18 | 207 | 12.9 | 19.3 | 0.00 | 0.00 | 0.00 | 82 | 1014.4 |
| 20260903194254 | 18 | 159 | 12.9 | 17.7 | 0.00 | 0.00 | 0.00 | 82 | 1014.4 |
| 20260903193759 | 18 | 134 | 11.3 | 22.5 | 0.00 | 0.00 | 0.00 | 83 | 1014.5 |
| 20260903193755 | 18 | 136 | 11.3 | 22.5 | 0.00 | 0.00 | 0.00 | 83 | 1014.4 |
| 20260903192754 | 18 | 190 | 11.3 | 24.1 | 0.00 | 0.00 | 0.00 | 83 | 1014.5 |
| 20260903192255 | 18 | 162 | 11.3 | 24.1 | 0.00 | 0.00 | 0.00 | 83 | 1014.6 |
| 20260903191755 | 18 | 132 | 11.3 | 17.7 | 0.00 | 0.00 | 0.00 | 83 | 1014.6 |
| 20260903191255 | 18 | 188 | 11.3 | 17.7 | 0.00 | 0.00 | 0.00 | 83 | 1014.8 |
| 20260903190754 | 18 | 185 | 11.3 | 17.7 | 0.00 | 0.00 | 0.00 | 83 | 1014.9 |
| 20260903190254 | 18 | 171 | 11.3 | 17.7 | 0.00 | 0.00 | 0.00 | 83 | 1014.9 |
| 20260903185755 | 18 | 153 | 11.3 | 17.7 | 0.00 | 0.00 | 0.00 | 83 | 1015.0 |
| 20260903185255 | 18 | 151 | 11.3 | 17.7 | 0.00 | 0.00 | 0.00 | 83 | 1015.0 |
| 20260903184754 | 18 | 140 | 9.7 | 17.7 | 0.00 | 0.00 | 0.00 | 84 | 1015.0 |
| 20260903184254 | 18 | 169 | 9.7 | 17.7 | 0.00 | 0.00 | 0.00 | 85 | 1015.1 |
| 20260903183754 | 18 | 187 | 9.7 | 17.7 | 0.00 | 0.00 | 0.00 | 85 | 1015.0 |
| 20260903183254 | 18 | 155 | 9.7 | 20.9 | 0.00 | 0.00 | 0.00 | 85 | 1015.1 |
| 20260903182755 | 18 | 142 | 9.7 | 20.9 | 0.00 | 0.00 | 0.00 | 84 | 1015.0 |
| 20260903182254 | 18 | 135 | 8.0 | 16.1 | 0.00 | 0.00 | 0.00 | 86 | 1015.1 |
| 20260903181754 | 18 | 171 | 8.0 | 16.1 | 0.00 | 0.00 | 0.00 | 86 | 1015.1 |
| 20260903181258 | 18 | 146 | 8.0 | 16.1 | 0.00 | 0.00 | 0.00 | 86 | 1015.2 |
| 20260903181254 | 18 | 151 | 8.0 | 16.1 | 0.00 | 0.00 | 0.00 | 85 | 1015.2 |
| 20260903180254 | 17 | 148 | 8.0 | 16.1 | 0.00 | 0.00 | 0.00 | 85 | 1015.3 |
| 20260903175755 | 18 | 161 | 8.0 | 16.1 | 0.00 | 0.00 | 0.00 | 85 | 1015.2 |
| 20260903175255 | 18 | 92 | 8.0 | 17.7 | 0.00 | 0.00 | 0.00 | 86 | 1015.3 |
| 20260903174754 | 18 | 140 | 9.7 | 17.7 | 0.00 | 0.00 | 0.00 | 85 | 1015.3 |
| 20260903174255 | 17 | 138 | 8.0 | 17.7 | 0.00 | 0.00 | 0.00 | 87 | 1015.2 |
| 20260903173754 | 17 | 132 | 6.4 | 17.7 | 0.00 | 0.00 | 0.00 | 89 | 1015.1 |
| 20260903173254 | 17 | 138 | 8.0 | 17.7 | 0.00 | 0.00 | 0.00 | 88 | 1015.1 |
| 20260903172754 | 17 | 153 | 8.0 | 17.7 | 0.00 | 0.00 | 0.00 | 88 | 1015.1 |
| 20260903172254 | 17 | 126 | 9.7 | 19.3 | 0.00 | 0.00 | 0.00 | 88 | 1015.1 |
| 20260903171754 | 17 | 150 | 11.3 | 19.3 | 0.00 | 0.00 | 0.00 | 89 | 1015.1 |
| 20260903171252 | 17 | 144 | 11.3 | 17.7 | 0.00 | 0.00 | 0.00 | 89 | 1015.1 |
| 20260903170753 | 16 | 122 | 9.7 | 17.7 | 0.00 | 0.00 | 0.00 | 89 | 1015.1 |
| 20260903170359 | 16 | 107 | 11.3 | 19.3 | 0.00 | 0.00 | 0.00 | 89 | 1015.0 |
| 20260903170255 | 17 | 94 | 9.7 | 19.3 | 0.00 | 0.00 | 0.00 | 89 | 1015.1 |
| 20260903170251 | 16 | 142 | 8.0 | 17.7 | 0.00 | 0.00 | 0.00 | 90 | 1015.0 |
| 20260903164750 | 17 | 109 | 11.3 | 16.1 | 0.00 | 0.00 | 0.00 | 88 | 1014.9 |
| 20260903164250 | 17 | 99 | 11.3 | 16.1 | 0.00 | 0.00 | 0.00 | 89 | 1014.9 |
| 20260903163754 | 17 | 120 | 9.7 | 16.1 | 0.00 | 0.00 | 0.00 | 88 | 1014.9 |
| 20260903163750 | 17 | 131 | 11.3 | 16.1 | 0.00 | 0.00 | 0.00 | 88 | 1014.9 |
| 20260903162750 | 17 | 119 | 8.0 | 14.5 | 0.00 | 0.00 | 0.00 | 89 | 1014.9 |
| 20260903162248 | 17 | 113 | 8.0 | 14.5 | 0.00 | 0.00 | 0.00 | 90 | 1014.9 |
| 20260903161752 | 16 | 116 | 6.4 | 16.1 | 0.00 | 0.00 | 0.00 | 92 | 1014.9 |
| 20260903161748 | 17 | 134 | 8.0 | 16.1 | 0.00 | 0.00 | 0.00 | 92 | 1014.9 |
| 20260903160746 | 16 | 115 | 1.6 | 12.9 | 0.00 | 0.00 | 0.00 | 93 | 1014.9 |
| 20260903160246 | 16 | 107 | 0.0 | 9.7 | 0.00 | 0.00 | 0.00 | 94 | 1014.8 |
| 20260903155746 | 16 | 112 | 1.6 | 11.3 | 0.00 | 0.00 | 0.00 | 94 | 1014.8 |
| 20260903155246 | 16 | 121 | 3.2 | 11.3 | 0.00 | 0.00 | 0.00 | 95 | 1014.8 |
| 20260903154746 | 16 | 92 | 1.6 | 11.3 | 0.00 | 0.00 | 0.00 | 95 | 1014.6 |
| 20260903154248 | 16 | 109 | 0.0 | 0.0 | 0.00 | 0.00 | 0.00 | 96 | 1014.8 |
| 20260903153746 | 16 | 82 | 0.0 | 1.6 | 0.00 | 0.00 | 0.00 | 96 | 1014.8 |
| 20260903153246 | 16 | 98 | 0.0 | 1.6 | 0.00 | 0.00 | 0.00 | 96 | 1014.9 |
| 20260903152747 | 15 | 73 | 0.0 | 0.0 | 0.00 | 0.00 | 0.00 | 97 | 1014.8 |
| 20260903152249 | 15 | 42 | 0.0 | 0.0 | 0.00 | 0.00 | 0.00 | 97 | 1014.6 |
| 20260903152245 | 15 | 63 | 0.0 | 0.0 | 0.00 | 0.00 | 0.00 | 97 | 1014.8 |
| 20260903151851 | 15 | 47 | 0.0 | 0.0 | 0.00 | 0.00 | 0.00 | 97 | 1014.8 |
| 20260903150744 | 15 | 54 | 0.0 | 9.7 | 0.00 | 0.00 | 0.00 | 97 | 1014.8 |
| 20260903150244 | 15 | 53 | 0.0 | 9.7 | 0.00 | 0.00 | 0.00 | 96 | 1014.6 |
| 20260903145744 | 15 | 47 | 0.0 | 12.9 | 0.00 | 0.00 | 0.00 | 96 | 1014.6 |
| 20260903145244 | 14 | 40 | 3.2 | 12.9 | 0.00 | 0.00 | 0.00 | 96 | 1014.8 |
| 20260903144743 | 14 | 39 | 8.0 | 11.3 | 0.00 | 0.00 | 0.00 | 96 | 1014.5 |
| 20260903144243 | 14 | 31 | 9.7 | 14.5 | 0.00 | 0.00 | 0.00 | 96 | 1014.5 |
| 20260903143744 | 14 | 355 | 9.7 | 17.7 | 0.00 | 0.00 | 0.00 | 96 | 1014.4 |
| 20260903143244 | 14 | 32 | 11.3 | 17.7 | 0.00 | 0.00 | 0.00 | 96 | 1014.4 |
| 20260903142744 | 14 | 28 | 12.9 | 17.7 | 0.00 | 0.00 | 0.00 | 96 | 1014.4 |
| 20260903142244 | 14 | 46 | 11.3 | 17.7 | 0.00 | 0.00 | 0.00 | 96 | 1014.3 |
| 20260903141744 | 14 | 42 | 8.0 | 14.5 | 0.00 | 0.00 | 0.00 | 96 | 1014.3 |
| 20260903141244 | 14 | 37 | 9.7 | 14.5 | 0.00 | 0.00 | 0.00 | 96 | 1014.3 |
| 20260903140744 | 14 | 21 | 9.7 | 16.1 | 0.00 | 0.00 | 0.00 | 96 | 1014.2 |
| 20260903140243 | 14 | 38 | 9.7 | 16.1 | 0.00 | 0.00 | 0.00 | 96 | 1014.1 |
| 20260903135744 | 14 | 29 | 9.7 | 16.1 | 0.00 | 0.00 | 0.00 | 95 | 1014.2 |
| 20260903135244 | 14 | 24 | 8.0 | 12.9 | 0.00 | 0.00 | 0.00 | 95 | 1014.1 |
| 20260903134744 | 14 | 22 | 9.7 | 12.9 | 0.00 | 0.00 | 0.00 | 95 | 1014.1 |
| 20260903134244 | 14 | 14 | 9.7 | 12.9 | 0.00 | 0.00 | 0.00 | 95 | 1014.1 |
| 20260903133748 | 14 | 38 | 9.7 | 14.5 | 0.00 | 0.00 | 0.00 | 94 | 1014.1 |
| 20260903133744 | 14 | 17 | 8.0 | 12.9 | 0.00 | 0.00 | 0.00 | 95 | 1014.1 |
| 20260903132744 | 14 | 36 | 9.7 | 14.5 | 0.00 | 0.00 | 0.00 | 94 | 1014.1 |
| 20260903132244 | 14 | 24 | 9.7 | 14.5 | 0.00 | 0.00 | 0.00 | 94 | 1014.2 |
| 20260903131744 | 14 | 32 | 11.3 | 14.5 | 0.00 | 0.00 | 0.00 | 93 | 1014.1 |
| 20260903131244 | 14 | 30 | 8.0 | 14.5 | 0.00 | 0.00 | 0.00 | 93 | 1014.2 |
| 20260903130743 | 14 | 22 | 6.4 | 12.9 | 0.00 | 0.00 | 0.00 | 92 | 1014.2 |
| 20260903130242 | 14 | 28 | 4.8 | 8.0 | 0.00 | 0.00 | 0.00 | 91 | 1014.1 |
| 20260903125741 | 15 | 37 | 4.8 | 8.0 | 0.00 | 0.00 | 0.00 | 89 | 1014.1 |
| 20260903125242 | 15 | 23 | 3.2 | 8.0 | 0.00 | 0.00 | 0.00 | 86 | 1014.1 |
| 20260903124748 | 16 | 44 | 1.6 | 4.8 | 0.00 | 0.00 | 0.00 | 79 | 1014.1 |
| 20260903124743 | 15 | 38 | 1.6 | 6.4 | 0.00 | 0.00 | 0.00 | 84 | 1014.1 |